St Lawrence Observation History
Time Wind Speed Temp Pressure Rel. Hum Rain
03/06:30am S 10-16 kts 12.2°c 1022.7 hPa 44% 0.0mm
03/06:00am S 10-15 kts 12.4°c 1022.2 hPa 44% 0.0mm
03/05:30am S 9-14 kts 12.5°c 1021.9 hPa 44% 0.0mm
03/05:00am SSE 9-13 kts 12.5°c 1021.8 hPa 43% 0.0mm
03/04:30am S 8-13 kts 12.7°c 1021.6 hPa 42% 0.0mm
03/04:00am S 6-8 kts 12.2°c 1021.6 hPa 45% 0.0mm
03/03:30am SSE 7-10 kts 12.6°c 1021.5 hPa 42% 0.0mm
03/03:00am SSE 7-10 kts 12.7°c 1021.4 hPa 43% 0.0mm
03/02:30am SSE 8-13 kts 13.2°c 1021.5 hPa 42% 0.0mm
03/02:00am SSE 7-9 kts 12.9°c 1021.5 hPa 46% 0.0mm
03/01:30am SSE 5-7 kts 12.8°c 1021.7 hPa 49% 0.0mm
03/01:00am SSE 5-7 kts 13.0°c 1022.0 hPa 50% 0.0mm
03/12:30am CALM 0 kts 9.4°c 1021.9 hPa 83% 0.0mm
03/12:00am CALM 0 kts 9.3°c 1022.0 hPa 82% 0.0mm
Time Wind Speed Temp Pressure Rel. Hum Rain
02/11:30pm S 3-4 kts 10.4°c 1022.0 hPa 73% 0.0mm
02/11:00pm S 3-5 kts 10.6°c 1022.2 hPa 75% 0.0mm
02/10:30pm S 3-4 kts 12.1°c 1022.3 hPa 69% 0.0mm
02/10:00pm S 5-7 kts 14.2°c 1022.3 hPa 57% 0.0mm
02/09:30pm SSE 5-6 kts 13.6°c 1022.1 hPa 62% 0.0mm
02/09:00pm SSE 4-5 kts 14.7°c 1021.9 hPa 57% 0.0mm
02/08:30pm SE 4-6 kts 15.3°c 1021.5 hPa 54% 0.0mm
02/08:00pm S 3-4 kts 15.0°c 1021.2 hPa 57% 0.0mm
02/07:30pm S 4-5 kts 17.1°c 1020.8 hPa 49% 0.0mm
02/07:00pm SSE 4-5 kts 18.3°c 1020.5 hPa 46% 0.0mm
02/06:30pm SSE 6-9 kts 20.1°c 1020.2 hPa 38% 0.0mm
02/06:00pm SE 5-7 kts 20.0°c 1019.8 hPa 41% 0.0mm
02/05:30pm SSE 6-9 kts 21.2°c 1019.4 hPa 37% 0.0mm
02/05:00pm SSE 7-11 kts 22.9°c 1019.0 hPa 33% 0.0mm
02/04:30pm SSE 8-13 kts 23.9°c 1018.7 hPa 30% 0.0mm
02/04:00pm SSE 9-14 kts 24.7°c 1018.2 hPa 29% 0.0mm
02/03:30pm SSE 7-11 kts 25.4°c 1018.2 hPa 29% 0.0mm
02/03:00pm SSE 7-11 kts 25.5°c 1018.1 hPa 28% 0.0mm
02/02:30pm SE 7-12 kts 25.4°c 1018.0 hPa 29% 0.0mm
02/02:00pm ESE 8-12 kts 25.5°c 1018.2 hPa 31% 0.0mm
02/01:30pm SE 7-11 kts 25.8°c 1018.3 hPa 32% 0.0mm
02/01:00pm SE 7-11 kts 25.2°c 1018.7 hPa 33% 0.0mm
02/12:30pm SSE 8-11 kts 25.1°c 1019.1 hPa 32% 0.0mm
02/12:00pm S 8-13 kts 24.4°c 1019.5 hPa 32% 0.0mm
02/11:30am SSE 9-13 kts 23.6°c 1019.7 hPa 32% 0.0mm
02/11:00am SSE 9-13 kts 23.5°c 1020.0 hPa 34% 0.0mm
02/10:30am SSE 10-15 kts 22.7°c 1020.2 hPa 36% 0.0mm
02/10:00am SSE 9-13 kts 22.1°c 1020.4 hPa 36% 0.0mm
02/09:30am SSE 10-15 kts 21.3°c 1020.6 hPa 39% 0.0mm
02/09:00am SSE 11-15 kts 20.4°c 1020.6 hPa 44% 0.0mm
02/08:30am SSE 6-9 kts 19.9°c 1020.4 hPa 67% 0.0mm
02/08:00am SSE 6-9 kts 18.7°c 1020.4 hPa 77% 0.0mm
02/07:30am SSE 7-10 kts 17.0°c 1019.9 hPa 93% 0.0mm
02/07:00am SSE 7-9 kts 16.4°c 1019.3 hPa 97% 0.0mm
02/06:30am CALM 0 kts 14.6°c 1018.7 hPa 94% 0.0mm
02/06:00am CALM 0 kts 15.0°c 1018.2 hPa 94% 0.0mm
02/05:30am CALM 0 kts 15.4°c 1017.7 hPa 95% 0.0mm
02/05:00am CALM 0 kts 15.1°c 1017.4 hPa 94% 0.0mm
02/04:30am SW 1-3 kts 15.6°c 1017.2 hPa 94% 0.0mm
02/04:00am SW 1-3 kts 15.9°c 1017.2 hPa 95% 0.0mm
02/03:30am S 4-5 kts 15.6°c 1016.9 hPa 94% 0.0mm
02/03:00am S 4-6 kts 15.6°c 1016.8 hPa 94% 0.0mm
02/02:30am S 4-5 kts 15.5°c 1016.9 hPa 94% 0.0mm
02/02:00am CALM 0 kts 15.3°c 1017.0 hPa 93% 0.0mm
02/01:30am CALM 0 kts 15.1°c 1017.0 hPa 93% 0.0mm
02/01:00am CALM 0 kts 15.3°c 1017.2 hPa 92% 0.0mm
02/12:30am N 1-3 kts 15.7°c 1017.2 hPa 93% 0.0mm
02/12:00am CALM 0 kts 15.8°c 1017.3 hPa 93% 0.0mm
Time Wind Speed Temp Pressure Rel. Hum Rain
01/11:30pm CALM 0 kts 15.4°c 1017.5 hPa 92% 0.0mm
01/11:00pm CALM 0 kts 15.7°c 1017.5 hPa 91% 0.0mm
01/10:30pm CALM 0 kts 16.3°c 1017.5 hPa 92% 0.0mm
01/10:00pm CALM 0 kts 16.5°c 1017.6 hPa 91% 0.0mm
01/09:30pm CALM 0 kts 16.7°c 1017.5 hPa 90% 0.0mm
01/09:00pm CALM 0 kts 17.4°c 1017.5 hPa 89% 0.0mm
01/08:30pm NNE 2-3 kts 17.9°c 1017.5 hPa 88% 0.0mm
01/08:00pm NNE 3-4 kts 17.9°c 1017.4 hPa 85% 0.0mm
01/07:30pm N 2-5 kts 19.1°c 1017.3 hPa 82% 0.0mm
01/07:00pm CALM 0-4 kts 19.2°c 1017.1 hPa 81% 0.0mm
01/06:30pm CALM 0 kts 19.6°c 1016.8 hPa 76% 0.0mm
01/06:00pm NNE 4-5 kts 20.8°c 1016.4 hPa 71% 0.0mm
01/05:30pm NNE 5-8 kts 21.6°c 1016.3 hPa 71% 0.0mm
01/05:00pm NNE 6-9 kts 22.6°c 1016.1 hPa 66% 0.0mm
01/04:30pm NE 8-11 kts 23.6°c 1016.0 hPa 58% 0.0mm
01/04:00pm NNE 8-10 kts 24.3°c 1015.8 hPa 53% 0.0mm
01/03:30pm NNE 9-12 kts 24.9°c 1015.7 hPa 50% 0.0mm
01/03:00pm NNE 9-13 kts 25.2°c 1015.8 hPa 49% 0.0mm
01/02:30pm NNE 9-11 kts 25.4°c 1015.7 hPa 50% 0.0mm
01/02:00pm NE 8-11 kts 25.3°c 1015.9 hPa 50% 0.0mm
01/01:30pm NE 8-12 kts 25.6°c 1016.1 hPa 47% 0.0mm
01/01:00pm NNE 8-11 kts 25.6°c 1016.3 hPa 48% 0.0mm
01/12:30pm NNE 7-9 kts 24.9°c 1016.9 hPa 56% 0.0mm
01/12:00pm NE 5-7 kts 25.5°c 1017.4 hPa 47% 0.0mm
01/11:30am ENE 3-6 kts 24.4°c 1018.0 hPa 49% 0.0mm
01/11:00am NE 4-6 kts 23.6°c 1018.3 hPa 64% 0.0mm
01/10:30am NNE 4-6 kts 23.4°c 1018.7 hPa 69% 0.0mm
01/10:00am CALM 0 kts 22.2°c 1019.1 hPa 73% 0.0mm
01/09:30am CALM 0-3 kts 21.3°c 1019.3 hPa 77% 0.0mm
01/09:00am CALM 0 kts 19.5°c 1019.5 hPa 84% 0.0mm
01/08:30am CALM 0-2 kts 17.7°c 1019.4 hPa 89% 0.0mm
01/08:00am CALM 0 kts 16.5°c 1019.2 hPa 89% 0.0mm
01/07:30am CALM 0 kts 15.3°c 1019.0 hPa 93% 0.0mm
01/07:00am CALM 0 kts 14.6°c 1018.8 hPa 94% 0.0mm
01/06:30am SSE 3-5 kts 14.9°c 1018.6 hPa 94% 0.0mm
01/06:00am SSE 4-5 kts 15.4°c 1018.2 hPa 95% 0.0mm
01/05:30am SSE 4-5 kts 15.5°c 1018.0 hPa 96% 0.0mm
01/05:00am SSE 4-6 kts 15.3°c 1017.8 hPa 96% 0.0mm
01/04:30am CALM 0 kts 14.4°c 1017.8 hPa 96% 0.0mm
01/04:00am CALM 0 kts 14.0°c 1017.8 hPa 95% 0.0mm
01/03:30am CALM 0 kts 13.3°c 1018.0 hPa 93% 0.0mm
01/03:00am CALM 0 kts 13.6°c 1018.0 hPa 93% 0.0mm
01/02:30am CALM 0 kts 13.5°c 1018.2 hPa 91% 0.0mm
01/02:00am CALM 0 kts 14.2°c 1018.3 hPa 92% 0.0mm
01/01:30am CALM 0 kts 14.6°c 1018.8 hPa 90% 0.0mm
01/01:00am CALM 0 kts 14.7°c 1018.9 hPa 90% 0.0mm
01/12:30am CALM 0 kts 14.6°c 1019.1 hPa 90% 0.0mm
01/12:00am CALM 0 kts 14.6°c 1019.0 hPa 90% 0.0mm